KEPLER-14 (STELLA) (47526 NORAD) Tracking and Keplerian Element Data

This shows tracking and keplerian element data for the satellite.

Feedback or suggestion? Click here.




ElementValue
Catalog47526
NameKEPLER-14 (STELLA)
Epoch Orbit1351
Epoch Day105.68192938
Epoch Year2021
RAAN167.8574
Inclination97.4915
Eccentricity0.0007893
Argument of Perigee340.2305
Mean Anonmoly19.8618
Mean Motion15.11879477
Decay Rate1.182E-05
L11 47526U 21006DS 21105.68192938 .00001182 00000-0 72787-4 0 9995
L22 47526 97.4915 167.8574 0007893 340.2305 19.8618 15.11879477 13516

Live tracking and technical data element details for KEPLER-14 (STELLA) (NORAD 47526). KEPLER-14 (STELLA) can be tracked NOW for your location showing map with azimuth and elevation plus other details from your city location.

Track the satellite on the map from your city or location and see movement details for azimuth, elevation, latitude, longitude, range, height, and movement on the map or in text.







IsCatalogInMostPopularTable: catalog: 47526, numindb: 13
Update: records affected: 1



GetName: 47526 KEPLER-14 (STELLA)

Hit Count: updated at: Fri, 16 Apr 2021 11:27:38 GMT